Weather reports worldwide

Advertisment
Berus, Germany (10704): temperature & dewpoint: 29.05.2020 20:00:00 - 04.06.2020 20:00:00 (CEST)Berus, Germany (10704): temperature 5cm & temperature -5cm: 29.05.2020 20:00:00 - 04.06.2020 20:00:00 (CEST)Berus, Germany (10704): temperature -20cm & temperature -100cm: 29.05.2020 20:00:00 - 04.06.2020 20:00:00 (CEST)Berus, Germany (10704): wind speed & gusts: 29.05.2020 20:00:00 - 04.06.2020 20:00:00 (CEST)Berus, Germany (10704): wind direction: 29.05.2020 20:00:00 - 04.06.2020 20:00:00 (CEST)Berus, Germany (10704): reduced air pressure: 29.05.2020 20:00:00 - 04.06.2020 20:00:00 (CEST)Berus, Germany (10704): visibility: 29.05.2020 20:00:00 - 04.06.2020 20:00:00 (CEST)Berus, Germany (10704): sunshine duration: 29.05.2020 20:00:00 - 04.06.2020 20:00:00 (CEST)Berus, Germany (10704): precipitation: 29.05.2020 20:00:00 - 04.06.2020 20:00:00 (CEST)
Date & Time tt [°C] td [°C] tt 5cm [°C] tt -5cm [°C] tt -20cm [°C] tt -100cm [°C] ff [km/h] ff [kn] fx [km/h] fx [kn] dd ppp [hPa] vv [km] sd [min] rr [mm]
04.06.2020 20:00:00 11,9 10,2 12,5 18,0 20,4 17,0 14 7 32 18 NNW 997,7 42 0 0,0
04.06.2020 19:00:00 13,0 11,5 13,4 19,4 20,5 16,9 11 6 29 15 NNW 996,8 21 0 4,0
04.06.2020 18:00:00 14,8 11,3 15,5 21,9 20,3 16,9 9 5 22 12 WNW 996,3 19 21 0,0
04.06.2020 17:00:00 15,5 11,8 17,2 21,7 20,2 16,9 8 5 24 13 WNW 996,4 18 10 0,0
04.06.2020 16:00:00 14,2 12,3 16,0 19,7 20,3 16,9 8 4 16 9 NW 996,4 9 0 0,4
04.06.2020 15:00:00 14,1 12,7 15,5 19,8 20,3 16,9 8 4 23 12 NW 996,5 20 0 0,5
04.06.2020 14:00:00 12,8 12,4 14,0 19,8 20,2 16,9 14 7 30 16 NW 996,7 3,2 0 6,1
04.06.2020 13:00:00 15,8 13,6 17,6 20,3 20,2 16,9 7 4 11 6 WSW 996,5 46 0 0,0
04.06.2020 12:00:00 14,6 13,2 15,5 18,8 20,3 16,9 4 2 12 6 NW 996,9 25 0 0,5
04.06.2020 11:00:00 14,1 12,9 15,3 18,8 20,3 16,8 5 3 13 7 NW 996,9 31 0 0,0
04.06.2020 10:00:00 14,1 13,0 15,2 18,7 20,4 16,8 8 4 19 11 WNW 997,0 27 0 0,1
04.06.2020 09:00:00 13,7 13,2 14,4 17,9 20,6 16,8 9 5 17 9 W 997,1 9 0 0,0
04.06.2020 08:00:00 13,8 13,4 14,4 18,0 20,8 16,8 9 5 12 6 SW 997,1 3,0 0 0,0
04.06.2020 07:00:00 13,4 13,0 13,9 17,4 21,1 16,8 0 0 8 5 N 997,2 4,7 0 0,0
04.06.2020 06:00:00 13,2 13,0 13,5 17,5 21,4 16,8 5 3 8 4 W 997,8 2,7 0 0,1
04.06.2020 05:00:00 13,4 12,9 13,5 17,5 21,8 16,8 3 2 16 9 E 998,1 16 0 0,0
04.06.2020 04:00:00 13,3 12,9 13,6 17,7 22,2 16,8 12 6 21 11 NNW 998,7 11 0 0,0
04.06.2020 03:00:00 13,5 13,0 13,7 18,2 22,7 16,8 13 7 23 13 NW 999,4 19 0 1,9
04.06.2020 02:00:00 13,9 13,5 14,2 18,9 23,2 16,7 10 5 20 11 WSW 1000,0 4,0 0 0,0
04.06.2020 01:00:00 13,8 13,4 14,1 19,5 23,7 16,7 16 9 31 17 NE 1000,3 8 0 4,3
04.06.2020 00:00:00 14,3 13,1 14,1 21,4 24,2 16,7 16 9 31 17 WNW 1001,4 5 0 0,6
03.06.2020 23:00:00 15,6 13,5 15,3 22,5 24,6 16,7 8 5 18 10 NNE 1001,0 39 0 1,3
03.06.2020 22:00:00 18,2 12,5 17,7 23,8 25,0 16,7 6 3 12 7 SE 1000,9 63 0 0,0
03.06.2020 21:00:00 18,3 10,7 17,2 24,9 25,3 16,7 5 3 21 12 NNE 1001,2 63 0 0,0
03.06.2020 20:00:00 19,2 9,1 18,0 26,6 25,6 16,7 3 1 9 5 NE 1001,4 75 7 0,0
03.06.2020 19:00:00 19,7 10,7 19,7 28,1 25,7 16,6 5 3 45 24 ENE 1001,3 65 22 0,6
03.06.2020 18:00:00 17,5 10,7 17,9 30,2 25,6 16,6 29 15 49 26 SW 1002,8 30 0 0,0
03.06.2020 17:00:00 23,3 10,0 27,1 33,4 25,2 16,6 13 7 28 15 NNW 1001,6 59 39 0,0
03.06.2020 16:00:00 26,0 8,3 32,2 34,1 24,6 16,6 16 9 26 14 W 1001,7 57 58 0,0
03.06.2020 15:00:00 26,5 6,9 34,6 33,0 24,0 16,6 12 7 24 13 W 1002,3 24 46 0,0
03.06.2020 14:00:00 25,6 7,5 33,5 32,3 23,4 16,6 8 4 26 14 W 1003,0 60 52 0,0
03.06.2020 13:00:00 23,9 8,1 29,1 30,9 22,7 16,5 8 4 20 11 W 1004,1 53 42 0,0
03.06.2020 12:00:00 24,4 10,6 31,8 29,4 22,2 16,5 5 3 14 8 SSW 1004,8 71 60 0,0
03.06.2020 11:00:00 23,2 11,6 29,6 26,9 21,7 16,5 5 3 10 5 SSW 1005,6 75 58 0,0
03.06.2020 10:00:00 20,9 9,1 26,9 24,0 21,6 16,5 5 3 11 6 ENE 1006,4 50 55 0,0
03.06.2020 09:00:00 19,1 8,2 22,2 21,4 21,6 16,5 4 2 8 4 ENE 1007,0 55 39 0,0
03.06.2020 08:00:00 18,1 9,9 22,0 19,8 21,8 16,5 3 2 10 5 NNE 1007,4 43 44 0,0
03.06.2020 07:00:00 16,8 8,9 16,6 19,0 22,2 16,5 6 4 9 5 N 1007,9 56 30 0,0
03.06.2020 06:00:00 14,2 8,3 10,8 19,3 22,5 16,5 4 2 15 8 N 1008,6 52 0 0,0
03.06.2020 05:00:00 16,1 8,1 13,6 19,9 22,9 16,5 10 6 15 8 N 1008,6 51 0 0,0
03.06.2020 04:00:00 17,0 8,0 15,1 20,5 23,2 16,5 12 7 20 11 N 1009,1 59 0 0,0
03.06.2020 03:00:00 18,0 7,8 16,1 21,2 23,6 16,5 12 7 22 12 NNW 1009,6 59 0 0,0
03.06.2020 02:00:00 19,8 7,7 17,8 21,9 24,0 16,5 11 6 18 10 WNW 1010,0 59 0 0,0
03.06.2020 01:00:00 20,0 7,2 17,2 22,7 24,5 16,5 10 5 16 8 WNW 1010,7 54 0 0,0
03.06.2020 00:00:00 20,4 6,3 16,9 23,7 24,9 16,5 9 5 13 7 WNW 1011,1 63 0 0,0
02.06.2020 23:00:00 21,9 6,5 17,7 24,9 25,2 16,4 8 4 12 6 WNW 1011,3 70 0 0,0
02.06.2020 22:00:00 22,4 7,0 19,7 26,4 25,5 16,4 9 5 14 7 NW 1011,3 75 0 0,0
02.06.2020 21:00:00 22,9 7,6 20,9 28,4 25,6 16,4 8 4 13 7 NW 1011,4 69 36 0,0
02.06.2020 20:00:00 25,6 7,6 26,4 30,6 25,6 16,4 5 3 8 4 W 1011,4 75 60 0,0
02.06.2020 19:00:00 26,0 5,9 30,7 32,1 25,4 16,4 4 2 8 5 NNW 1011,9 66 57 0,0
02.06.2020 18:00:00 26,2 6,2 33,5 32,9 25,0 16,4 3 2 11 6 SW 1012,5 62 48 0,0
02.06.2020 17:00:00 25,4 7,3 28,9 34,6 24,4 16,4 6 4 20 11 NE 1013,2 75 50 0,0
02.06.2020 16:00:00 26,3 7,4 32,3 34,5 23,7 16,4 6 3 17 9 SSE 1013,7 52 60 0,0
02.06.2020 15:00:00 25,7 6,7 34,9 33,6 22,9 16,3 6 4 18 10 E 1014,4 59 60 0,0
02.06.2020 14:00:00 25,7 6,8 34,2 32,2 22,2 16,3 5 3 21 12 ENE 1015,1 66 59 0,0
02.06.2020 13:00:00 24,8 7,5 33,4 30,4 21,5 16,3 9 5 26 14 ENE 1015,7 58 60 0,0
02.06.2020 12:00:00 23,9 7,0 32,6 28,1 20,9 16,3 10 5 18 10 ENE 1016,4 75 60 0,0
02.06.2020 11:00:00 21,6 8,0 30,8 25,0 20,5 16,3 8 5 15 8 ENE 1017,0 31 60 0,0
02.06.2020 10:00:00 19,4 8,4 25,5 22,2 20,3 16,3 10 6 18 10 NE 1017,8 74 60 0,0
02.06.2020 09:00:00 17,1 7,4 22,5 19,7 20,4 16,3 12 7 24 13 NNE 1018,2 64 60 0,0
02.06.2020 08:00:00 16,0 7,4 18,6 17,9 20,6 16,3 17 9 23 12 NE 1018,2 74 60 0,0
02.06.2020 07:00:00 14,6 6,9 14,7 17,5 20,9 16,3 17 9 22 12 NNE 1018,4 66 54 0,0
02.06.2020 06:00:00 13,9 6,6 12,2 17,8 21,3 16,3 19 10 22 12 NNE 1018,5 56 0 0,0
02.06.2020 05:00:00 14,4 6,7 12,6 18,3 21,6 16,3 19 10 23 12 NNE 1018,4 71 0 0,0
02.06.2020 04:00:00 15,2 6,9 13,2 18,9 22,0 16,3 18 10 25 14 NNE 1018,4 75 0 0,0
02.06.2020 03:00:00 15,6 7,1 13,7 19,5 22,4 16,3 18 10 21 11 NNE 1018,4 70 0 0,0
02.06.2020 02:00:00 16,3 7,0 14,2 20,2 22,8 16,3 16 9 19 11 NNE 1018,5 52 0 0,0
02.06.2020 01:00:00 17,3 6,8 15,0 21,0 23,2 16,3 16 9 21 12 NNE 1018,5 55 0 0,0
02.06.2020 00:00:00 17,9 7,0 15,3 22,0 23,6 16,3 15 8 18 10 NNE 1018,5 59 0 0,0
01.06.2020 23:00:00 18,4 7,5 15,6 23,3 24,0 16,3 13 7 19 10 NE 1018,3 58 0 0,0
01.06.2020 22:00:00 19,5 7,6 17,6 24,8 24,3 16,3 16 8 30 16 NE 1018,0 40 1 0,0
01.06.2020 21:00:00 21,4 7,6 20,3 26,8 24,4 16,3 21 11 37 20 NE 1017,3 59 60 0,0
01.06.2020 20:00:00 23,1 7,2 25,1 29,2 24,3 16,2 19 10 32 17 NE 1017,0 46 60 0,0
01.06.2020 19:00:00 24,4 7,4 28,3 30,9 24,0 16,2 11 6 26 14 NE 1017,1 43 60 0,0
01.06.2020 18:00:00 24,3 6,2 30,4 32,0 23,5 16,2 14 8 29 15 ENE 1017,3 70 60 0,0
01.06.2020 17:00:00 24,1 5,4 31,4 32,5 22,9 16,2 17 9 32 17 ENE 1017,7 59 60 0,0
01.06.2020 16:00:00 23,9 6,2 30,8 32,3 22,2 16,2 21 11 36 20 NE 1017,8 56 59 0,0
01.06.2020 15:00:00 24,2 7,4 32,7 31,4 21,5 16,2 16 9 40 21 ENE 1018,0 44 60 0,0
01.06.2020 14:00:00 23,7 8,2 32,2 30,3 20,7 16,2 18 10 35 19 ENE 1018,3 49 60 0,0
01.06.2020 13:00:00 22,8 8,0 30,1 28,3 20,1 16,2 16 8 37 20 ENE 1018,7 46 60 0,0
01.06.2020 12:00:00 21,0 8,2 28,3 25,6 19,5 16,2 20 11 40 22 NE 1019,2 73 60 0,0
01.06.2020 11:00:00 19,3 8,6 24,5 22,9 19,1 16,2 20 11 41 22 ENE 1019,5 52 60 0,0
01.06.2020 10:00:00 17,4 7,3 22,3 20,3 19,0 16,2 22 12 40 22 ENE 1019,9 53 60 0,0
01.06.2020 09:00:00 15,5 6,8 19,4 17,8 19,0 16,2 22 12 37 20 NE 1020,0 71 60 0,0
01.06.2020 08:00:00 13,4 6,2 16,1 15,9 19,3 16,2 23 12 35 19 NE 1019,9 75 60 0,0
01.06.2020 07:00:00 11,7 5,5 12,0 15,6 19,6 16,2 22 12 29 16 NE 1020,2 75 52 0,0
01.06.2020 06:00:00 11,0 5,0 9,5 15,8 19,9 16,2 18 10 25 14 NE 1020,3 75 0 0,0
01.06.2020 05:00:00 10,9 4,7 9,3 16,2 20,3 16,2 16 9 22 12 NE 1020,5 70 0 0,0
01.06.2020 04:00:00 11,4 4,6 9,5 16,8 20,7 16,2 14 7 24 13 NNE 1020,6 75 0 0,0
01.06.2020 03:00:00 11,6 4,7 10,0 17,4 21,0 16,2 16 9 25 13 NE 1020,7 75 0 0,0
01.06.2020 02:00:00 12,2 5,2 10,5 18,1 21,4 16,2 16 9 23 12 NE 1020,8 75 0 0,0
01.06.2020 01:00:00 13,0 5,4 11,2 18,9 21,9 16,2 15 8 28 15 NE 1020,6 75 0 0,0
01.06.2020 00:00:00 13,4 5,7 11,7 19,8 22,3 16,1 17 9 24 13 NE 1020,6 75 0 0,0
31.05.2020 23:00:00 14,2 5,2 12,5 20,9 22,7 16,1 15 8 27 15 NE 1020,5 74 0 0,0
31.05.2020 22:00:00 15,5 5,0 13,7 22,2 23,0 16,1 16 8 27 15 NE 1019,9 75 0 0,0
31.05.2020 21:00:00 17,0 4,6 15,8 24,0 23,2 16,1 17 9 34 18 NE 1019,3 75 60 0,0
31.05.2020 20:00:00 17,9 4,6 19,8 26,1 23,2 16,1 22 12 45 24 NE 1018,9 68 56 0,0
31.05.2020 19:00:00 18,8 3,8 21,8 27,5 23,0 16,1 17 9 41 22 NE 1018,6 75 37 0,0
31.05.2020 18:00:00 19,3 3,9 24,8 29,3 22,7 16,1 22 12 41 22 NE 1018,6 72 57 0,0
31.05.2020 17:00:00 19,3 2,6 26,2 30,2 22,2 16,1 16 9 44 24 NE 1018,6 58 60 0,0
31.05.2020 16:00:00 19,3 2,8 26,2 30,2 21,6 16,1 22 12 45 24 NE 1018,9 75 60 0,0
31.05.2020 15:00:00 18,8 3,4 26,5 29,2 21,0 16,1 13 7 41 22 ENE 1019,2 65 49 0,0
31.05.2020 14:00:00 16,8 3,1 22,5 28,4 20,3 16,1 24 13 41 22 NE 1019,7 71 46 0,0
31.05.2020 13:00:00 17,7 3,1 27,3 27,2 19,6 16,0 25 14 41 22 NE 1019,6 58 60 0,0
31.05.2020 12:00:00 17,4 4,4 25,8 24,6 19,1 16,0 27 14 44 24 NE 1020,0 50 60 0,0
31.05.2020 11:00:00 16,0 3,7 22,1 22,1 18,8 16,0 25 14 39 21 NE 1020,3 61 60 0,0
31.05.2020 10:00:00 15,5 3,9 20,0 19,5 18,7 16,0 18 10 34 18 NE 1020,4 74 60 0,0
31.05.2020 09:00:00 13,7 3,7 18,0 17,0 18,7 16,0 17 9 28 15 NE 1020,7 48 60 0,0
31.05.2020 08:00:00 11,6 3,7 14,4 15,1 19,0 16,0 16 9 23 12 NE 1020,9 75 60 0,0
31.05.2020 07:00:00 9,6 3,3 9,7 14,7 19,4 16,0 13 7 21 12 NNE 1021,2 68 51 0,0
31.05.2020 06:00:00 8,6 2,9 6,9 15,1 19,7 16,0 15 8 20 11 NNE 1021,0 75 0 0,0
31.05.2020 05:00:00 9,6 2,7 7,9 15,6 20,1 16,0 17 9 22 12 NE 1020,9 64 0 0,0
31.05.2020 04:00:00 9,8 2,6 8,1 16,2 20,5 16,0 16 8 21 12 NE 1021,1 67 0 0,0
31.05.2020 03:00:00 10,7 2,6 8,9 16,9 21,0 16,0 16 8 22 12 NE 1021,0 75 0 0,0
31.05.2020 02:00:00 11,3 2,7 9,3 17,7 21,4 16,0 13 7 19 11 NNE 1021,1 75 0 0,0
31.05.2020 01:00:00 12,0 2,5 9,9 18,5 21,8 16,0 14 7 20 11 NE 1021,2 75 0 0,0
31.05.2020 00:00:00 12,7 2,4 11,0 19,6 22,3 16,0 15 8 29 15 NE 1021,1 69 0 0,0
30.05.2020 23:00:00 14,6 2,2 12,9 20,7 22,7 16,0 18 10 31 17 NE 1020,6 75 0 0,0
30.05.2020 22:00:00 15,2 2,1 13,3 22,1 23,0 16,0 16 9 37 20 NE 1020,3 75 0 0,0
30.05.2020 21:00:00 16,9 1,2 15,9 23,9 23,2 16,0 24 13 42 23 ENE 1019,5 75 60 0,0
30.05.2020 20:00:00 18,3 0,7 19,9 26,2 23,2 15,9 27 15 44 24 NE 1019,1 70 60 0,0
30.05.2020 19:00:00 19,4 2,2 22,9 27,9 23,0 15,9 24 13 46 25 NE 1018,9 64 60 0,0
30.05.2020 18:00:00 19,4 1,8 24,3 29,3 22,7 15,9 28 15 49 26 NE 1019,2 75 60 0,0
30.05.2020 17:00:00 20,3 2,2 26,5 30,1 22,2 15,9 24 13 44 24 ENE 1019,3 53 60 0,0
30.05.2020 16:00:00 20,1 -0,7 26,8 30,2 21,6 15,9 26 14 47 26 NE 1019,6 47 60 0,0
30.05.2020 15:00:00 20,0 1,6 27,2 29,8 20,9 15,9 29 15 48 26 NE 1019,9 63 59 0,0
30.05.2020 14:00:00 18,8 2,9 26,0 28,5 20,3 15,9 25 14 44 24 NE 1020,5 71 53 0,0
30.05.2020 13:00:00 18,3 2,9 24,9 26,6 19,7 15,9 22 12 45 25 ENE 1021,1 70 58 0,0
30.05.2020 12:00:00 18,0 3,0 25,0 24,5 19,2 15,9 29 16 48 26 NE 1021,5 47 60 0,0
30.05.2020 11:00:00 17,2 2,6 23,2 22,4 18,8 15,9 28 15 44 24 NE 1021,7 75 60 0,0
30.05.2020 10:00:00 16,2 3,7 21,7 19,6 18,7 15,9 17 9 31 17 NE 1022,2 75 60 0,0
30.05.2020 09:00:00 14,0 4,1 18,3 17,1 18,8 15,9 16 9 31 17 NE 1022,6 73 60 0,0
30.05.2020 08:00:00 12,1 4,0 14,7 15,3 19,0 15,9 19 10 25 13 NNE 1022,6 68 60 0,0
30.05.2020 07:00:00 10,8 3,3 10,6 15,0 19,4 15,8 19 10 24 13 NNE 1022,7 61 51 0,0
30.05.2020 06:00:00 10,0 3,0 8,5 15,2 19,7 15,8 20 11 23 13 NNE 1022,7 70 0 0,0
30.05.2020 05:00:00 10,2 3,1 8,5 15,8 20,1 15,8 17 9 22 12 NNE 1022,6 75 0 0,0
30.05.2020 04:00:00 10,7 3,1 8,9 16,4 20,5 15,8 18 10 24 13 NNE 1022,7 75 0 0,0
30.05.2020 03:00:00 11,4 3,2 9,5 17,0 20,9 15,8 16 9 23 13 NE 1022,7 73 0 0,0
30.05.2020 02:00:00 12,0 3,4 10,0 17,8 21,4 15,8 16 9 22 12 NNE 1022,7 70 0 0,0
30.05.2020 01:00:00 12,8 3,6 10,7 18,6 21,8 15,8 16 8 20 11 NNE 1022,5 64 0 0,0
30.05.2020 00:00:00 13,8 3,5 11,6 19,6 22,2 15,8 15 8 21 11 NE 1022,4 64 0 0,0
29.05.2020 23:00:00 14,7 3,4 12,5 20,7 22,6 15,8 16 8 21 11 NE 1022,4 61 0 0,0
29.05.2020 22:00:00 15,3 3,6 13,4 22,2 22,9 15,8 15 8 23 12 NE 1022,2 70 0 0,0
29.05.2020 21:00:00 17,1 3,2 15,7 24,0 23,1 15,7 16 9 39 21 NE 1021,8 66 57 0,0
29.05.2020 20:00:00 18,6 3,1 20,4 26,3 23,1 15,7 22 12 35 19 NE 1021,7 60 60 0,0

tt = temperature
td = dewpoint
tt 5cm = temperature 5cm
tt -5cm = temperature -5cm
tt -20cm = temperature -20cm
tt -100cm = temperature -100cm
ff = wind speed
fx = gusts
dd = wind direction
ppp = reduced air pressure
vv = visibility
sd = sunshine duration
rr = precipitation

Next stations